GFSGBSN_850_spd_225.txt.gz
Wind_Speed
11 7 10 12 13 13 13 13 13 14 15 16 18 18 19 19 20 20 19 19 20 20 17 17 17 18 17 8 19 9 13 12 5 4 4 5 8 7 5 4 2 5 4 6 15 10 7
13 10 11 10 12 14 14 14 14 15 14 16 18 19 20 20 20 20 20 20 19 20 19 17 15 16 14 10 13 20 28 21 18 14 3 2 3 1 3 4 6 3 5 10 8 9 7
12 8 7 11 12 13 14 14 12 14 14 15 16 18 19 21 23 23 22 21 21 19 19 18 13 13 18 28 12 15 14 23 24 17 11 4 3 2 1 2 5 4 6 8 12 7 6
11 10 11 12 12 13 13 15 16 14 15 14 15 16 17 19 23 25 25 24 22 21 18 15 11 12 13 15 18 20 21 27 24 20 15 8 1 3 4 5 1 4 3 8 3 13 9
6 9 10 11 12 12 12 14 15 17 17 17 17 19 19 20 22 23 23 24 22 18 14 9 11 9 15 11 13 10 9 17 19 14 15 10 7 5 5 4 4 6 10 9 6 11 3
7 8 8 10 12 11 11 13 15 16 17 18 18 19 19 19 23 24 24 24 13 9 5 5 8 7 12 7 8 8 5 6 7 7 13 12 8 6 5 10 16 13 7 7 8 2 6
7 8 10 11 12 10 11 13 15 17 18 18 17 18 17 19 22 24 25 18 14 5 14 8 11 17 16 8 13 7 8 4 6 9 12 11 7 17 25 20 12 6 12 13 5 6 3
7 8 9 11 11 12 12 12 13 16 19 17 17 15 17 19 20 17 18 10 11 17 17 18 25 33 37 26 13 9 7 8 9 12 9 8 21 22 12 15 14 16 13 9 3 6 2
9 9 10 10 10 12 14 12 15 16 16 17 18 17 17 19 17 11 16 9 17 16 7 13 19 20 25 20 17 24 8 5 6 10 17 21 27 13 14 15 15 18 21 18 13 4 7
10 9 9 10 12 13 12 15 17 14 15 17 18 15 17 19 6 20 8 14 13 13 4 7 4 5 6 10 9 30 30 11 7 12 13 12 20 16 19 20 18 22 16 14 12 7 10
10 9 9 10 11 14 14 16 18 16 16 15 15 15 16 16 17 17 12 12 13 7 5 3 3 3 3 13 11 3 18 15 16 4 5 10 6 17 21 17 17 13 6 12 13 15 12
9 10 9 8 11 13 15 18 18 15 12 13 15 15 17 17 21 10 14 11 6 2 5 6 2 1 2 12 7 7 6 9 10 12 10 14 2 4 16 18 11 8 7 7 14 11 14
8 9 9 9 11 11 14 17 20 14 12 14 14 16 18 19 19 15 7 4 3 2 4 6 9 10 5 4 4 5 3 9 10 8 13 21 21 12 11 5 16 12 10 7 8 8 14
9 8 10 9 10 11 14 18 18 11 11 14 18 20 16 4 9 5 4 3 2 3 5 10 9 19 5 13 4 3 3 5 12 3 5 12 11 17 12 16 10 22 20 9 14 14 17
8 9 10 12 12 13 13 14 15 9 10 15 21 20 3 4 9 4 5 2 5 5 3 9 13 8 6 11 7 2 6 3 5 12 8 5 11 6 9 17 17 13 19 25 16 9 8
8 9 9 10 11 10 12 13 10 9 11 18 22 11 9 7 1 16 2 3 4 4 7 6 6 2 10 12 8 10 5 4 7 5 6 8 15 16 10 13 21 22 15 13 13 20 25
8 8 9 10 13 7 11 6 10 11 14 19 17 3 10 8 15 5 2 5 5 12 12 5 3 6 5 8 3 7 3 7 4 6 9 6 8 6 10 15 17 12 17 16 9 15 17
8 7 8 9 10 7 6 6 10 11 14 16 8 2 5 7 2 4 2 4 7 10 8 6 6 9 11 9 6 5 5 4 10 5 7 6 5 11 17 18 12 11 15 22 15 23 16
8 8 9 8 9 7 7 8 7 11 12 13 9 2 3 4 2 1 5 5 5 4 6 4 5 5 4 5 6 5 5 6 9 5 3 9 3 7 8 11 14 11 15 16 18 19 23
8 8 8 9 9 4 2 3 7 9 13 10 4 2 1 4 3 2 6 5 5 7 10 6 5 10 12 13 12 9 9 7 14 20 13 10 4 5 8 6 3 7 12 8 11 8 21
9 9 9 8 8 4 4 2 6 9 6 4 2 0 1 2 2 2 4 4 9 6 6 9 3 5 9 5 9 10 7 6 6 10 5 10 7 9 12 15 16 10 14 15 11 13 6
11 9 9 8 7 6 5 3 6 3 2 2 1 0 1 6 9 4 1 3 11 8 4 11 5 11 14 8 12 19 10 7 7 5 3 6 4 2 4 12 14 15 12 14 20 16 13
12 11 10 9 8 6 7 6 4 5 6 4 4 5 4 5 2 1 3 4 3 9 10 9 14 16 16 17 16 21 23 22 18 13 6 5 4 3 13 10 11 10 18 19 14 9 8
13 13 12 11 9 9 11 7 5 6 8 9 8 6 3 4 4 5 5 12 17 19 17 28 24 17 11 23 30 23 27 29 27 22 21 13 13 7 10 8 11 11 10 18 21 18 19
14 14 13 13 11 11 9 13 12 9 11 11 11 12 5 4 10 14 17 13 15 19 18 22 32 23 16 20 5 5 3 4 12 22 21 24 16 8 7 11 13 17 7 13 16 22 18
14 14 15 14 13 12 11 10 16 16 10 13 12 13 10 7 7 17 6 6 10 11 8 7 12 26 9 4 4 4 4 4 5 3 5 15 16 10 7 10 11 16 17 27 16 15 17
14 15 15 15 15 14 13 12 11 15 19 15 14 14 18 9 21 24 9 7 5 6 6 13 9 10 12 3 4 6 7 4 6 6 3 4 6 15 13 12 9 16 14 2 8 14 22
16 16 15 15 15 14 13 12 12 12 11 20 20 18 20 19 31 30 27 22 20 13 8 11 11 3 2 4 4 3 4 3 5 6 8 11 6 7 9 10 14 21 6 14 15 29 29
17 17 16 16 14 14 14 14 13 13 12 15 23 23 22 24 27 31 33 32 34 34 25 14 10 8 4 3 2 3 8 5 10 5 4 5 8 5 6 7 13 10 15 16 21 21 28

GFSGBSN_850_spd_231.txt.gz
Wind_Speed
8 7 7 9 9 10 10 10 10 11 11 12 13 13 14 14 14 15 15 16 16 16 17 17 16 14 13 5 12 14 16 9 9 9 8 9 17 21 23 20 24 23 21 25 26 22 15
8 6 7 8 8 8 8 9 11 11 11 12 12 13 14 15 16 17 18 18 16 15 16 15 16 15 8 12 6 8 11 14 12 12 11 10 11 17 28 25 23 23 24 28 29 22 23
5 5 8 7 8 7 9 9 11 12 13 12 13 13 13 14 14 17 19 18 18 17 15 14 13 11 11 19 14 18 18 16 14 14 14 11 12 12 7 17 27 24 23 18 24 26 21
1 5 6 8 9 7 8 10 12 12 13 13 14 14 14 14 17 20 20 19 17 15 13 12 10 4 8 9 14 14 15 18 19 20 22 17 13 16 20 17 16 18 23 20 25 23 27
4 6 5 7 6 5 7 10 11 12 13 16 15 15 14 14 18 20 21 19 13 11 10 10 7 4 6 8 9 13 14 15 15 18 21 19 15 21 15 15 17 19 20 28 28 25 25
1 2 3 5 5 5 6 9 11 12 14 14 13 13 12 14 17 20 20 13 11 7 16 4 2 7 6 17 22 20 16 14 16 16 20 23 17 15 17 16 21 23 28 27 28 23 23
4 3 3 4 4 6 8 9 10 12 12 12 12 12 11 13 15 21 23 12 7 2 11 6 11 12 17 21 22 21 16 15 15 18 20 28 20 22 29 27 25 26 26 27 21 25 23
2 2 3 3 4 7 7 8 9 10 11 12 12 11 10 12 10 17 18 10 9 6 9 7 7 8 12 15 16 18 13 11 18 20 22 23 27 29 27 27 27 29 28 28 25 16 20
2 4 3 4 5 5 6 8 9 10 11 11 12 10 9 11 9 15 10 11 7 8 7 3 4 5 10 14 14 17 14 21 20 21 22 26 29 27 31 29 27 28 28 26 26 17 17
3 3 4 4 5 5 6 7 8 10 10 11 12 11 9 9 9 11 6 10 8 6 4 5 4 3 9 16 9 24 12 21 19 20 25 21 26 31 30 33 28 27 24 23 25 22 19
4 3 4 5 5 7 7 7 9 10 10 10 11 11 10 11 8 8 9 10 8 2 2 5 5 8 15 13 19 10 8 12 20 21 14 22 23 25 32 28 30 28 20 20 22 23 20
5 5 5 4 5 6 6 7 10 9 9 9 10 11 10 8 6 8 8 5 3 3 3 7 5 12 17 15 20 19 25 8 20 20 23 23 30 24 21 27 28 22 23 21 18 17 19
7 7 6 5 5 6 8 9 9 6 7 9 11 11 7 3 4 8 4 3 1 2 6 4 10 14 22 12 11 7 18 17 9 14 19 22 24 21 12 16 18 24 17 14 18 16 19
9 9 8 8 6 5 5 5 4 4 5 8 11 7 4 1 6 4 4 1 1 1 6 12 12 17 18 10 11 16 8 17 18 15 15 19 23 25 16 19 18 23 24 18 21 19 21
10 9 8 7 5 4 4 4 2 3 4 7 11 3 4 5 6 2 5 0 1 5 10 11 16 9 9 10 14 18 12 6 13 15 15 16 19 17 26 27 21 23 21 27 27 26 19
10 10 9 7 7 5 3 1 1 3 4 7 4 1 7 5 4 6 2 1 2 4 9 8 7 6 13 17 18 16 12 6 7 14 15 14 18 16 14 12 18 25 20 19 17 25 29
12 10 9 7 6 5 4 4 2 4 5 6 3 2 5 7 6 1 0 3 5 4 8 7 10 16 16 17 14 16 8 6 6 2 13 13 10 18 16 17 17 15 20 20 19 17 20
13 11 10 8 6 5 6 5 3 4 6 9 0 1 3 5 1 2 1 4 6 8 9 11 8 11 11 13 13 16 18 13 12 9 5 2 6 12 21 20 15 22 16 12 16 24 19
13 11 10 9 8 6 7 6 4 2 3 2 2 1 3 1 1 2 5 9 10 12 7 4 8 13 10 13 9 12 15 17 18 15 8 6 2 8 12 17 17 15 20 15 13 18 22
13 12 11 9 8 7 7 8 5 2 4 7 3 2 1 0 2 4 4 6 3 3 12 11 10 14 11 13 14 9 17 9 19 19 11 6 12 14 14 15 7 14 19 21 17 10 13
14 13 12 11 10 8 9 9 6 2 4 7 2 2 0 2 5 8 3 5 9 6 5 9 5 8 9 8 15 17 12 19 22 20 16 6 11 14 19 21 18 17 19 19 21 21 11
15 14 14 12 11 9 11 11 9 4 4 3 3 3 3 8 6 7 4 5 8 7 2 7 12 13 13 13 16 22 20 18 13 14 13 13 10 14 15 18 19 19 19 19 20 21 23
16 15 15 14 12 10 11 12 12 7 9 4 3 1 1 3 5 5 7 7 6 6 6 7 8 12 16 18 19 23 26 26 23 20 19 19 16 16 21 19 17 11 21 21 21 22 22
18 17 16 15 15 14 11 14 14 11 10 4 3 3 3 3 6 7 8 10 12 13 14 18 18 16 18 21 24 24 27 30 30 27 27 20 19 14 14 16 20 17 19 22 23 22 22
19 18 17 16 15 14 14 14 17 16 13 9 8 5 3 4 9 13 14 13 15 15 15 16 15 12 10 18 12 10 9 11 17 21 19 21 18 12 12 15 22 25 22 20 22 22 19
19 18 18 17 16 15 15 15 18 18 18 13 9 8 6 4 4 11 12 10 9 11 11 10 3 11 11 9 6 6 5 14 6 4 7 11 18 13 12 16 16 15 16 22 12 11 11
20 19 18 18 17 16 15 15 16 21 22 17 16 17 9 8 14 13 11 8 7 8 7 16 11 8 4 4 5 7 10 14 8 11 15 8 7 14 15 14 12 16 17 23 16 8 24
21 20 19 18 19 17 16 16 15 16 17 22 14 17 17 9 21 23 22 18 15 14 9 11 10 3 5 4 4 5 4 3 7 11 10 13 10 7 8 9 16 15 13 5 11 26 24
23 22 20 20 19 18 18 17 15 16 15 16 17 18 18 20 19 16 16 19 23 24 24 15 11 6 2 3 4 4 6 8 15 15 17 12 8 7 8 9 23 22 7 17 26 24 18

GFSGBSN_850_spd_234.txt.gz
Wind_Speed
4 3 6 7 7 7 8 9 10 11 11 11 12 12 12 12 12 13 14 15 15 15 15 15 13 13 5 3 5 8 12 12 12 11 10 12 13 17 20 18 23 23 22 30 30 31 26
3 4 6 7 6 6 7 8 10 10 11 11 11 12 12 13 13 15 16 15 14 13 13 13 14 11 7 5 3 8 14 16 13 11 14 13 13 16 20 23 23 28 28 29 30 28 25
3 4 5 6 7 5 7 9 10 11 11 12 12 12 12 11 13 15 16 16 16 12 11 11 11 8 5 12 15 15 16 16 16 14 16 14 14 15 14 17 23 30 24 24 22 24 24
3 5 7 7 7 5 7 9 10 11 12 13 12 12 12 14 17 19 18 17 14 11 13 11 9 6 6 6 11 15 16 18 12 16 19 18 17 18 18 19 25 20 21 22 24 21 23
6 5 5 6 5 6 7 10 10 11 12 14 14 14 14 14 16 17 15 12 12 8 21 9 12 5 3 10 16 21 17 20 20 17 17 18 19 23 19 15 15 17 19 25 27 25 22
3 3 4 4 4 5 8 10 10 12 12 14 14 13 12 13 15 18 13 10 9 7 16 7 5 6 5 17 22 22 18 18 17 18 17 19 16 18 17 16 18 22 24 26 26 22 24
6 5 4 4 4 5 8 8 11 11 12 13 13 11 10 12 15 19 24 11 7 3 9 5 6 6 11 15 15 18 18 16 16 18 17 21 17 20 25 24 27 22 23 28 26 24 24
4 4 4 4 5 6 7 8 9 10 10 11 12 10 9 10 13 18 20 12 10 5 6 1 2 4 9 10 17 16 20 15 18 18 19 19 22 26 25 27 28 28 28 27 24 25 21
5 5 5 4 5 5 6 7 8 9 10 11 11 9 8 8 12 13 10 12 7 7 6 1 1 2 10 12 19 15 20 19 19 22 21 22 24 25 28 27 30 28 28 23 24 23 26
6 6 5 5 5 5 6 7 7 8 8 9 10 9 8 6 9 12 5 11 8 4 4 4 1 3 12 14 8 21 16 14 15 21 22 23 25 26 27 31 28 27 27 26 25 18 17
8 6 5 5 5 6 6 5 7 7 8 9 9 9 9 13 5 9 11 10 7 3 2 6 4 6 16 20 9 16 18 18 19 19 18 23 23 26 27 30 28 28 25 26 26 21 18
9 8 6 5 5 6 5 6 7 6 7 8 9 9 6 8 6 9 9 5 4 2 4 6 5 13 13 21 10 8 16 12 16 22 19 24 35 24 18 28 27 28 26 28 25 15 16
11 10 7 5 6 6 6 6 5 4 5 7 10 9 7 8 5 8 5 6 1 4 7 6 12 14 15 17 13 13 19 14 6 7 15 20 23 25 23 24 26 22 20 14 19 15 16
13 12 11 9 8 7 6 4 3 4 5 7 9 6 9 4 7 4 7 1 5 3 6 13 12 17 12 11 13 17 18 13 7 11 16 17 15 18 16 16 20 19 21 16 20 16 18
13 12 11 11 8 7 5 3 2 2 4 4 10 8 4 10 6 8 6 4 3 5 9 11 15 9 9 14 18 18 18 7 11 14 13 15 17 29 22 17 18 15 20 20 22 19 15
14 13 13 11 10 8 5 3 1 2 3 3 7 0 5 7 5 6 2 2 1 4 7 8 8 5 16 18 17 15 15 9 11 12 15 13 17 16 22 33 15 26 19 14 11 22 23
17 15 13 12 11 9 7 5 2 1 3 7 7 2 7 5 7 2 3 3 4 4 8 6 10 13 14 16 15 16 16 4 13 13 8 12 8 17 18 16 13 13 15 19 16 11 14
20 18 14 12 11 9 8 6 2 2 6 6 0 2 6 8 3 3 0 5 6 5 6 9 8 11 11 12 14 16 18 11 13 17 12 6 6 11 22 24 21 16 14 11 7 19 15
19 18 15 14 12 10 9 8 5 4 5 5 2 1 4 5 1 1 6 6 7 9 8 3 6 10 11 13 10 10 18 20 18 15 11 10 5 11 15 10 18 7 18 15 9 15 18
19 18 16 14 13 11 10 10 7 5 10 9 3 0 1 3 2 2 4 5 3 1 8 7 8 12 11 13 10 10 19 13 24 20 17 10 11 13 13 17 2 11 27 20 18 4 6
19 18 17 15 14 12 12 12 9 7 13 9 3 3 1 2 3 6 4 5 7 6 4 7 4 7 11 9 15 16 15 23 22 22 16 6 9 14 19 21 20 17 16 21 18 18 14
20 19 18 17 15 14 13 14 11 9 13 5 5 4 4 5 6 7 4 3 7 7 4 6 11 14 13 13 14 20 21 17 12 16 12 11 11 15 20 20 22 20 19 19 20 22 21
22 20 20 19 16 15 14 16 14 12 13 3 4 2 2 4 4 6 7 7 6 6 6 9 9 11 14 17 21 23 26 29 26 21 20 18 13 13 20 18 21 17 14 16 19 21 20
23 22 21 19 19 16 15 16 17 16 16 7 5 4 4 3 7 8 8 10 10 11 12 16 15 14 16 17 23 26 30 32 31 25 24 19 17 12 13 16 13 10 15 18 18 21 19
24 23 22 21 19 19 18 17 19 19 18 13 4 5 4 3 8 11 12 13 12 13 13 15 14 10 10 14 9 10 8 9 10 20 20 18 16 7 6 10 19 23 21 21 17 15 16
25 24 23 22 20 19 18 19 18 21 20 19 9 9 5 2 6 10 8 9 8 8 8 7 1 10 7 9 3 3 4 13 5 10 5 9 15 9 8 6 8 8 13 19 12 14 13
25 25 23 23 22 20 19 19 19 19 22 21 12 13 9 6 11 11 8 7 5 7 5 9 7 3 4 2 4 5 8 13 6 10 12 8 6 11 11 9 8 9 17 17 9 8 25
25 24 23 22 22 21 19 18 18 17 20 24 15 16 15 7 14 15 15 14 11 11 7 8 9 4 5 3 3 4 3 5 8 12 13 15 10 9 9 8 8 13 15 6 14 22 28
27 25 24 23 22 23 21 19 18 16 16 17 16 14 15 16 12 11 12 14 17 18 19 11 10 7 3 4 2 3 4 6 14 12 13 11 12 12 8 8 24 26 9 17 22 16 19

GFSGBSN_850_spd_237.txt.gz
Wind_Speed
2 5 6 6 6 6 6 7 8 9 10 9 10 10 10 10 10 11 11 11 12 12 12 10 9 8 3 8 11 10 10 13 14 9 10 14 12 13 5 8 15 14 15 29 37 31 30
7 5 6 6 7 5 5 7 8 9 9 10 10 11 9 9 10 11 12 12 12 11 10 10 8 5 7 6 9 9 15 16 17 15 8 6 8 19 15 14 8 15 24 22 31 33 30
5 6 6 7 7 4 6 8 8 9 10 10 10 10 8 8 10 11 11 10 10 10 9 9 9 7 12 7 12 17 16 16 12 14 17 12 10 13 18 12 15 20 13 13 20 19 18
5 8 9 7 6 6 8 8 8 9 9 11 10 9 9 10 13 16 13 11 9 13 12 12 15 13 5 11 15 20 22 19 11 12 13 11 14 16 14 12 13 6 8 5 12 14 21
8 9 7 7 6 7 8 8 9 9 10 11 11 10 11 13 15 16 9 6 6 16 13 9 14 10 5 7 21 19 21 23 23 13 15 14 15 18 14 5 6 6 7 9 10 12 10
6 6 8 7 6 7 9 7 8 8 11 13 12 11 11 12 14 15 7 6 9 15 9 9 11 6 7 13 16 19 15 17 19 16 18 6 7 5 3 5 12 6 10 10 15 5 14
9 9 7 7 7 7 8 7 8 9 11 12 12 10 9 9 12 21 14 6 4 6 10 4 4 2 7 13 12 12 17 17 15 17 6 14 6 12 10 14 19 17 21 22 15 9 18
7 7 7 8 8 7 7 7 8 10 11 11 11 8 7 8 11 18 21 13 11 6 5 3 1 3 7 8 11 15 16 12 11 8 11 8 13 15 14 18 19 21 23 26 22 19 18
9 7 8 8 8 7 7 8 8 9 9 10 9 7 6 5 14 15 13 14 4 3 2 2 4 3 9 7 9 11 19 12 4 6 6 7 16 25 22 21 20 23 23 21 21 16 22
10 9 8 8 7 7 7 8 8 8 8 8 7 6 6 2 5 10 8 11 6 4 3 4 4 3 10 17 4 7 13 7 6 8 10 7 10 19 24 23 20 23 19 22 22 16 15
12 10 9 8 7 7 7 7 7 7 6 6 7 6 7 11 5 9 9 7 4 3 6 5 2 3 17 15 19 7 9 2 2 7 4 11 16 17 21 20 23 17 15 21 23 15 15
12 11 10 7 6 5 6 6 7 6 5 6 6 5 2 5 6 9 8 2 3 4 1 0 4 9 13 17 11 8 16 14 3 3 7 11 20 15 21 16 22 25 22 20 16 15 16
14 12 11 7 6 6 6 6 5 4 4 6 6 4 5 5 5 6 2 3 4 6 8 5 7 9 9 9 5 12 11 9 2 8 14 20 10 16 10 15 19 19 13 8 10 11 11
16 14 13 11 9 7 5 5 4 3 2 4 7 6 8 9 9 2 4 3 8 6 5 8 9 14 2 13 8 9 8 5 7 10 10 8 15 17 20 16 14 10 7 6 10 9 12
16 16 14 13 11 7 6 5 4 3 1 3 6 7 8 12 3 5 5 6 6 3 5 7 10 5 6 14 8 10 9 6 6 11 8 7 9 24 10 16 4 8 10 11 9 7 9
18 16 16 15 11 9 7 5 5 3 0 2 2 4 5 6 3 6 4 3 1 2 5 4 3 5 7 9 8 12 7 7 7 9 9 5 11 8 22 9 8 11 8 6 2 3 6
20 17 16 15 13 12 10 7 6 4 4 7 5 1 3 3 3 5 3 4 3 8 5 4 4 5 5 8 9 9 5 4 7 8 13 5 3 13 13 7 16 15 8 6 1 3 3
24 21 18 16 14 13 11 8 7 6 8 7 2 2 5 2 4 4 2 4 3 2 5 3 3 4 4 8 5 5 4 9 5 9 6 4 4 5 18 21 12 9 10 12 4 7 4
27 25 22 20 16 15 13 11 10 10 10 6 2 2 6 4 3 0 5 4 2 2 3 3 3 3 5 5 4 5 7 17 15 14 10 7 3 7 13 5 9 8 9 8 5 3 4
23 22 23 21 18 16 15 13 11 11 11 8 3 1 1 4 4 1 1 3 2 5 2 1 4 7 4 5 6 6 11 8 23 21 22 14 5 6 6 11 14 14 14 11 6 3 6
25 23 22 20 18 17 16 14 14 13 16 10 5 4 3 2 3 3 2 1 3 3 5 0 1 4 6 4 8 9 9 17 14 15 11 4 3 6 13 15 16 18 20 16 13 10 7
25 24 22 21 20 18 16 17 17 17 18 9 6 4 3 2 11 9 5 3 3 5 1 2 4 6 6 4 6 14 12 7 6 4 6 8 4 13 14 13 13 18 18 19 17 15 13
25 23 21 21 21 19 18 18 20 19 21 7 7 5 1 2 3 4 5 5 7 2 2 3 6 4 5 10 12 15 20 21 18 14 12 7 3 2 5 6 13 8 9 14 12 12 9
26 25 23 23 21 20 19 19 21 22 24 11 13 4 5 3 3 5 8 14 9 6 5 7 10 6 6 13 19 19 25 27 24 23 19 7 2 2 5 5 3 8 9 13 13 6 10
27 26 25 24 22 21 19 18 22 24 25 17 12 5 5 2 6 9 10 8 9 6 6 11 11 1 9 10 4 6 5 4 6 11 15 19 7 3 2 3 9 10 8 8 4 4 9
28 27 26 25 24 22 22 19 20 25 25 22 15 11 6 4 6 8 4 3 1 1 4 2 0 6 4 1 3 1 3 3 4 6 3 14 13 6 2 4 5 3 19 31 12 3 17
28 28 26 25 24 22 21 20 20 22 25 23 19 16 9 4 7 4 3 3 4 2 2 1 1 2 5 2 1 3 4 4 3 3 4 4 2 11 9 5 4 11 17 26 4 4 22
28 27 27 26 25 24 22 20 20 20 23 25 24 19 17 7 12 7 8 5 5 5 4 2 5 4 0 2 2 4 2 3 4 4 5 2 2 2 2 1 6 15 15 3 8 23 15
28 26 26 26 25 25 23 21 20 19 17 26 24 20 16 14 9 8 15 22 22 20 13 7 6 1 7 2 1 1 2 2 2 4 2 4 4 1 2 4 25 23 19 15 19 8 19

GFSGBSN_850_spd_240.txt.gz
Wind_Speed
5 7 9 8 7 7 7 9 10 10 10 9 8 7 6 7 7 9 10 9 9 7 6 5 4 4 8 12 10 14 11 11 11 10 10 12 9 9 3 8 17 5 7 16 25 26 26
7 5 8 8 9 6 7 9 9 10 10 9 8 7 6 7 9 10 10 8 7 8 8 7 5 6 11 9 12 12 14 14 8 10 10 8 8 11 8 7 6 14 19 21 24 28 21
6 6 7 10 9 7 8 9 9 9 9 9 8 8 7 7 9 10 7 5 6 7 8 10 11 20 21 11 13 16 16 19 14 9 13 9 7 8 11 9 11 17 8 12 18 14 7
8 9 11 9 8 8 10 10 10 9 9 9 9 7 6 8 10 11 6 6 9 11 12 14 13 11 8 10 13 15 22 23 22 3 6 6 5 11 5 7 11 8 6 4 4 5 8
8 9 8 8 8 8 9 10 9 8 8 9 8 6 7 9 12 12 6 6 9 11 11 12 12 9 4 7 17 19 21 21 21 20 8 7 7 5 4 3 6 4 8 9 10 7 6
6 7 8 8 7 8 9 8 8 8 8 8 8 6 8 10 13 12 7 10 11 10 7 9 11 5 9 8 11 12 15 16 17 23 9 15 7 4 5 4 4 5 8 6 7 7 18
12 11 9 8 7 8 8 7 6 6 7 8 8 7 8 8 11 14 4 8 3 5 16 9 7 5 8 10 9 9 16 13 17 16 6 9 5 3 7 8 11 11 16 22 20 17 18
9 8 8 8 8 8 8 6 5 6 7 8 8 6 6 7 8 13 12 10 9 4 4 7 5 3 6 7 6 10 15 9 6 5 4 6 1 4 9 11 11 14 18 22 18 15 18
12 10 9 9 9 9 7 6 5 5 6 7 7 6 3 6 5 5 14 13 3 2 3 1 0 3 7 7 5 7 8 5 1 3 6 0 6 10 8 9 13 13 14 16 23 14 19
15 13 10 9 10 9 7 6 5 5 6 6 6 5 3 7 1 3 10 7 5 5 4 1 3 1 10 10 3 9 7 3 3 3 5 3 4 9 10 11 7 14 12 20 15 12 15
16 14 12 10 10 10 8 6 4 4 4 5 5 4 2 5 5 6 7 4 5 2 5 5 3 3 13 2 8 10 9 2 3 2 3 7 10 7 7 9 9 10 16 13 19 14 13
17 15 13 12 10 9 7 5 5 4 3 3 3 1 1 3 3 6 4 2 2 6 1 2 3 6 9 6 6 12 16 8 4 2 2 9 14 3 3 10 5 12 11 12 10 8 9
17 18 15 13 12 9 7 5 3 3 2 2 1 2 3 4 3 3 2 2 5 6 4 2 3 5 5 4 5 8 6 9 4 5 7 5 6 4 10 12 9 7 5 4 5 3 12
21 20 18 15 13 11 8 6 4 3 2 2 3 5 5 5 3 2 1 5 8 5 2 3 3 8 4 7 5 10 6 3 8 5 3 6 7 6 14 8 7 6 2 3 6 2 4
24 22 20 18 15 13 10 8 5 4 3 3 4 4 7 7 4 3 2 5 7 4 2 3 6 3 4 6 4 7 4 3 4 6 4 4 5 16 8 20 3 5 3 10 3 9 4
25 25 19 19 17 14 12 10 7 6 4 4 4 3 3 2 1 2 4 4 3 2 3 1 0 3 2 5 4 6 2 3 5 8 9 4 8 6 11 8 9 6 4 5 1 2 5
25 24 21 19 18 16 14 12 9 7 6 8 6 1 1 1 1 2 4 5 2 3 2 2 1 1 2 3 3 2 2 2 3 6 7 3 2 8 7 5 9 4 4 2 3 3 3
29 26 23 20 18 18 16 13 12 10 11 9 5 2 2 3 3 2 2 2 1 0 2 1 2 2 2 3 3 2 0 4 9 10 3 1 3 4 16 16 6 3 4 5 3 5 3
28 29 27 23 19 18 18 16 15 14 14 11 6 3 1 1 3 1 3 2 2 2 2 2 1 3 2 1 2 3 3 9 18 7 5 4 2 5 8 6 4 5 12 12 3 2 4
29 31 30 27 23 21 19 18 18 17 17 13 6 1 1 2 4 5 4 3 2 7 3 3 1 1 2 2 3 3 3 5 21 11 11 2 4 7 6 5 8 11 14 12 8 2 4
29 29 28 27 25 22 20 19 20 18 18 15 8 4 4 2 3 3 2 2 3 4 6 6 2 3 2 2 3 4 2 5 6 6 3 3 3 3 6 11 11 16 16 13 11 11 4
29 28 27 25 24 22 21 21 22 21 21 15 8 6 6 5 10 7 3 4 6 3 6 4 4 1 3 4 5 6 2 2 5 2 3 3 4 5 8 10 12 13 15 17 14 15 13
31 30 28 27 25 23 21 21 25 24 24 8 9 7 4 7 7 5 5 6 8 5 1 6 4 2 3 6 6 11 15 14 13 6 3 3 3 0 4 5 10 5 4 4 5 3 4
28 29 28 27 25 24 22 21 27 27 29 12 13 10 5 3 4 5 6 10 8 10 5 7 7 5 3 4 13 15 16 20 18 17 16 4 4 2 4 5 3 5 9 8 5 9 9
28 28 28 27 26 25 23 22 26 29 29 20 13 9 7 2 5 3 9 7 15 14 6 5 6 5 1 4 4 6 5 5 3 7 13 18 4 1 1 2 7 4 6 6 3 2 9
30 29 30 28 26 25 24 22 22 29 28 27 17 12 6 6 6 5 5 6 4 3 3 4 7 4 3 4 3 3 2 3 3 6 6 12 7 3 2 3 4 1 7 17 8 4 11
28 31 30 28 27 26 24 24 21 27 29 29 21 16 8 4 3 8 5 6 6 5 3 2 4 3 6 2 2 3 3 3 3 3 1 4 3 10 7 5 6 2 9 12 1 4 21
30 30 31 30 28 27 25 23 24 22 27 28 28 19 17 7 6 9 10 8 8 9 4 6 3 2 3 2 3 3 3 3 2 3 2 3 3 4 2 1 6 11 4 3 8 22 15
30 30 31 32 29 28 26 24 23 24 23 27 26 24 20 14 6 11 16 19 18 11 9 11 3 5 8 3 0 2 0 1 2 3 4 3 5 3 6 5 5 3 10 21 11 16 19

GFSGBSN_850_spd_246.txt.gz
Wind_Speed
14 14 14 13 14 13 11 14 13 12 12 12 10 9 8 8 9 10 8 6 4 3 2 2 8 11 10 9 8 13 15 13 9 7 8 8 14 4 4 3 7 3 7 17 22 21 23
9 13 13 13 18 14 13 14 13 11 12 13 11 9 7 8 10 10 7 5 3 2 4 6 8 8 6 9 13 13 14 14 11 9 10 9 8 6 6 4 4 9 8 11 14 17 15
12 9 12 15 19 14 14 13 12 11 12 13 11 8 7 9 11 11 5 3 4 5 10 17 23 22 21 11 12 12 13 15 12 7 9 8 8 6 5 3 10 7 8 6 15 26 8
14 12 16 18 16 14 13 14 12 11 12 12 11 8 8 9 12 9 5 4 7 8 14 14 10 12 9 13 12 14 19 12 10 10 7 9 8 11 7 6 6 6 6 7 7 25 13
14 13 13 12 14 15 13 13 12 11 11 11 10 8 8 8 11 5 5 6 8 10 10 9 7 9 5 13 14 15 18 21 10 14 11 11 13 10 11 4 4 9 3 4 11 17 9
16 13 14 14 14 14 13 13 11 11 11 11 9 7 7 8 9 4 8 11 11 11 11 12 11 11 6 6 13 14 19 18 14 5 8 10 9 6 6 8 3 4 4 4 6 8 5
19 16 15 16 15 13 13 13 12 10 10 10 9 7 7 7 6 4 10 7 5 8 20 11 9 9 9 5 7 11 15 21 19 16 5 10 9 6 5 4 3 3 3 5 6 9 11
20 17 15 15 15 14 13 13 13 10 10 9 8 7 6 5 8 7 7 1 9 9 9 12 12 9 10 8 6 11 14 7 16 7 4 6 10 3 3 4 2 0 2 5 8 6 11
21 21 18 16 15 15 13 13 12 11 9 8 7 6 5 2 6 8 5 10 15 8 5 5 6 7 6 7 6 9 11 4 7 7 6 6 2 5 5 5 6 3 2 3 6 6 6
20 22 20 19 18 17 14 13 12 10 10 8 6 6 4 3 2 2 5 14 10 4 5 4 2 3 4 1 6 14 7 4 6 4 3 4 4 4 4 4 2 3 5 5 6 6 3
22 23 23 21 18 18 16 13 12 10 10 8 6 4 2 3 2 2 5 10 6 1 4 1 2 3 12 9 2 12 10 8 4 3 6 2 5 5 4 3 2 6 6 6 4 2 3
26 26 25 23 20 18 16 13 11 10 10 8 6 4 2 2 2 3 7 10 3 6 3 1 2 3 5 11 6 5 10 8 7 4 5 2 3 3 3 5 3 7 4 5 4 3 2
29 29 26 24 22 18 17 15 12 10 9 8 7 4 2 3 2 4 8 7 5 5 2 1 2 3 4 6 6 6 6 8 5 5 7 7 4 5 9 7 7 9 5 4 5 4 3
30 29 30 27 24 20 19 15 13 11 9 8 7 4 3 3 5 6 10 5 4 4 3 2 3 4 5 5 4 4 3 4 7 6 4 5 3 5 7 1 3 4 1 4 2 2 4
32 30 30 29 28 23 19 17 16 12 10 8 6 6 4 4 7 8 5 4 7 6 6 7 4 5 2 3 4 4 3 2 3 4 4 2 3 5 3 3 1 4 3 2 3 0 3
30 32 30 28 28 25 22 20 17 13 10 8 7 7 7 6 6 8 4 4 2 3 5 3 4 2 4 2 3 3 2 1 2 4 1 2 2 1 6 6 5 3 3 2 3 2 3
31 30 31 29 29 26 24 19 19 14 11 9 8 5 8 9 9 4 4 5 4 4 6 3 4 4 4 4 3 3 4 2 2 2 5 1 2 4 2 3 2 5 4 3 1 2 1
35 32 30 30 30 28 24 19 17 17 13 11 7 1 9 13 3 1 3 5 5 5 4 3 4 4 4 4 3 4 4 3 5 2 2 1 2 3 4 6 4 2 2 4 3 2 2
32 34 32 30 30 30 25 21 19 18 17 14 5 4 8 16 3 1 2 2 3 4 4 3 3 4 2 5 4 3 5 9 6 4 5 3 1 2 2 3 3 3 3 4 2 2 6
33 37 33 33 31 32 27 24 21 19 21 19 5 1 4 10 4 6 6 5 5 4 4 6 5 6 4 3 1 5 4 5 2 4 3 5 3 5 5 2 2 3 3 2 4 2 3
44 34 36 36 31 33 33 27 22 22 24 20 9 4 5 3 4 4 3 6 7 6 5 8 3 5 6 4 3 4 3 2 2 4 3 3 4 2 6 6 3 6 9 7 8 9 5
44 32 39 37 32 33 33 31 26 24 27 24 7 6 6 3 12 8 3 6 7 5 7 5 6 7 5 6 6 7 6 4 4 1 2 1 2 1 4 4 6 8 9 7 9 9 11
39 40 40 38 35 34 35 34 30 27 33 15 18 8 3 6 5 5 5 7 9 11 3 9 12 6 5 6 8 6 11 7 7 8 4 3 3 2 3 3 4 5 6 6 3 2 4
35 43 38 38 36 35 36 37 34 31 37 23 18 11 6 2 3 4 7 6 8 6 8 9 19 6 6 9 6 2 3 7 9 8 10 4 4 2 2 3 2 4 2 3 5 4 2
33 43 35 40 37 35 36 37 36 34 36 34 20 14 7 2 5 3 9 5 16 11 5 8 9 8 14 7 3 4 3 2 3 4 8 7 3 1 2 2 7 2 3 5 3 4 3
31 40 37 41 37 35 35 35 34 35 35 38 21 19 8 8 8 7 9 15 5 5 3 4 10 18 9 5 3 4 4 3 3 4 4 6 2 3 1 2 5 4 4 5 6 3 1
30 34 38 40 37 34 36 35 34 34 33 36 32 21 10 4 3 12 5 13 11 8 4 8 10 5 6 2 3 3 3 2 4 6 6 5 1 4 2 3 7 5 8 8 4 4 3
26 31 37 39 37 34 36 34 36 34 32 36 38 23 15 5 7 16 9 11 15 15 5 13 7 1 3 3 3 4 3 4 2 3 6 7 7 4 4 5 9 12 5 6 2 5 10
25 29 37 39 36 35 35 34 36 34 32 35 32 24 20 7 4 11 16 11 16 20 14 23 6 7 9 4 0 3 2 1 4 3 1 3 5 5 8 6 5 20 8 7 7 9 10

GFSGBSN_850_spd_249.txt.gz
Wind_Speed
13 11 14 13 12 17 11 14 14 13 13 12 11 9 7 7 8 9 7 5 3 1 1 3 7 9 11 9 6 9 10 9 6 5 5 5 8 4 4 3 4 4 3 5 11 13 15
15 12 10 14 13 18 15 14 15 12 12 12 11 8 7 8 9 9 5 3 2 3 5 7 11 8 6 7 10 10 8 8 6 6 9 8 7 10 9 4 4 0 3 6 9 21 6
18 13 13 15 18 15 16 13 14 11 11 12 11 8 7 8 11 7 4 4 5 7 11 15 15 19 19 9 10 11 7 9 8 9 11 12 11 5 6 5 4 2 3 2 17 20 10
21 15 16 15 13 14 15 14 14 12 11 11 11 8 8 8 10 5 5 6 8 12 17 13 10 12 9 11 11 12 12 11 13 12 13 12 11 16 7 5 6 6 5 6 6 20 11
22 21 13 14 15 15 15 15 14 11 10 10 10 8 8 8 9 3 5 6 10 13 11 10 9 12 6 11 13 18 16 8 14 15 16 12 16 10 6 5 5 10 4 6 10 11 11
25 21 16 15 16 17 14 15 15 11 10 10 10 8 8 7 7 4 7 12 12 11 10 12 13 12 7 7 14 13 19 10 9 13 9 10 9 6 12 3 5 3 3 3 5 8 12
22 21 20 17 16 15 16 14 15 12 10 10 10 8 7 6 4 7 11 12 6 8 11 8 9 13 8 7 10 12 7 15 16 12 5 12 12 11 9 9 8 6 3 2 3 6 12
19 22 22 19 16 18 17 15 14 13 10 9 9 9 6 4 3 6 10 2 8 12 11 12 12 12 10 6 7 13 13 6 10 7 3 7 14 3 6 6 6 3 2 5 6 6 6
23 21 21 21 19 18 18 18 15 12 10 9 8 8 6 1 3 4 7 9 18 11 6 5 8 7 6 11 6 10 9 4 7 13 13 10 3 7 10 9 8 2 3 3 4 11 4
22 21 20 22 23 20 19 18 16 14 9 8 7 7 5 2 1 3 7 16 12 5 4 2 1 3 0 4 4 13 7 3 5 5 5 9 4 6 9 7 2 2 1 3 7 6 5
23 22 23 22 23 23 19 18 15 14 11 8 5 5 3 3 3 3 8 13 8 2 3 3 2 4 7 6 1 10 11 13 5 5 2 3 4 6 6 5 1 2 6 5 3 0 1
23 23 26 25 23 25 23 19 17 13 12 8 6 4 4 4 4 5 11 11 4 5 3 3 2 2 4 10 5 4 8 10 6 6 10 4 2 3 2 2 1 9 1 3 2 1 5
25 26 24 26 25 25 24 20 17 15 12 9 7 6 6 7 6 8 12 9 3 4 0 4 3 3 5 3 4 4 7 9 3 5 3 3 3 1 4 2 2 7 3 2 2 3 2
26 26 27 25 27 26 24 23 19 17 13 11 9 7 7 7 8 10 13 3 3 3 4 2 4 6 4 1 2 2 3 3 8 4 4 3 3 3 5 2 2 4 2 2 3 1 3
27 27 27 27 27 27 24 24 21 17 15 11 9 8 8 7 10 11 6 2 6 6 6 8 5 4 2 1 4 3 3 3 3 5 3 3 3 2 2 1 2 2 4 3 3 2 2
31 32 27 28 27 26 25 24 22 19 15 12 8 7 8 9 9 11 2 4 2 3 6 3 4 2 5 4 2 3 2 1 4 4 2 2 4 3 4 1 5 3 1 2 2 3 2
35 33 34 28 29 25 26 25 22 18 14 11 8 5 7 12 11 5 3 5 4 6 7 4 4 5 4 5 3 3 4 1 2 3 7 2 1 1 1 3 2 2 2 3 2 1 1
38 38 37 31 29 28 27 26 23 19 15 12 8 2 11 15 4 1 3 5 6 6 5 4 4 5 5 4 4 3 5 3 5 5 4 2 3 3 2 4 2 2 3 2 2 3 1
40 40 39 40 29 31 29 27 26 20 18 14 6 5 10 19 4 3 2 2 3 5 4 3 3 2 2 5 5 4 4 4 9 4 5 5 1 4 3 2 1 2 2 4 4 2 6
43 39 41 38 34 32 31 29 27 22 21 20 7 3 5 13 5 5 6 4 5 4 5 6 6 5 5 4 3 6 4 4 4 5 5 4 3 3 2 4 3 5 7 5 3 3 3
43 39 40 37 45 27 33 32 29 25 24 24 10 6 6 5 6 4 4 7 7 6 5 9 2 5 7 5 4 5 4 4 3 6 3 5 4 3 6 7 5 7 10 10 12 10 8
35 33 35 34 39 29 36 34 33 28 26 29 8 6 7 2 8 11 7 7 11 5 7 6 7 10 7 7 6 10 8 6 4 4 3 2 3 1 2 0 4 10 12 13 15 14 17
32 29 30 32 36 37 37 37 36 35 33 26 23 9 5 6 6 7 6 8 9 11 1 9 14 8 8 8 11 16 9 12 10 8 4 5 5 3 1 0 5 8 10 16 8 10 10
31 27 29 31 34 46 35 40 39 39 38 32 18 11 7 2 5 6 9 5 12 7 8 9 22 7 9 20 21 16 11 8 8 4 4 6 6 3 1 1 3 1 1 8 10 6 9
31 29 29 32 33 43 32 43 41 40 40 38 18 17 9 3 7 3 9 5 17 12 6 9 7 11 29 16 4 5 3 2 3 1 6 3 4 3 2 3 6 5 7 6 7 7 8
37 32 32 33 32 38 33 43 42 42 41 35 39 17 9 8 8 9 9 20 7 4 4 5 17 30 16 4 3 5 5 5 6 5 4 5 3 2 3 3 5 1 6 9 7 7 15
41 34 30 30 30 36 36 44 41 43 40 37 39 26 8 5 4 15 7 16 14 7 5 8 11 7 7 3 2 3 3 3 9 11 8 6 5 9 4 3 8 7 13 10 4 1 9
43 30 25 27 29 36 39 43 40 40 37 39 37 39 18 8 11 14 12 17 16 16 6 17 7 1 2 3 3 4 3 6 4 7 9 9 9 6 7 5 10 14 9 7 4 10 5
40 28 23 26 24 31 39 41 38 38 37 41 31 43 22 7 5 15 12 16 21 19 19 24 6 8 10 4 2 3 3 3 6 5 4 6 6 6 11 6 2 27 3 12 10 6 3